| time (UTC) | temp F | wind direction | speed MPH | gust MPH | rain 1hr in | rain 24hr in | rain mn in | humidity % | barometer mb |
| 20260507183802 | 69 | 145 | 6.0 | 12.0 | 0.00 | 0.00 | 0.00 | 37 | 1014.7 |
| 20260507183302 | 69 | 150 | 6.0 | 12.0 | 0.00 | 0.00 | 0.00 | 35 | 1014.7 |
| 20260507182802 | 68 | 280 | 6.0 | 10.0 | 0.00 | 0.00 | 0.00 | 36 | 1015.4 |
| 20260507182306 | 68 | 129 | 7.0 | 14.0 | 0.00 | 0.00 | 0.00 | 36 | 1015.4 |
| 20260507181802 | 67 | 167 | 7.0 | 14.0 | 0.00 | 0.00 | 0.00 | 35 | 1015.4 |
| 20260507181302 | 67 | 139 | 6.0 | 12.0 | 0.00 | 0.00 | 0.00 | 37 | 1015.4 |
| 20260507180801 | 66 | 33 | 6.0 | 8.0 | 0.00 | 0.00 | 0.00 | 37 | 1015.9 |
| 20260507180302 | 65 | 111 | 7.0 | 12.0 | 0.00 | 0.00 | 0.00 | 36 | 1015.9 |
| 20260507175802 | 65 | 145 | 5.0 | 14.0 | 0.00 | 0.00 | 0.00 | 37 | 1015.9 |
| 20260507175306 | 64 | 135 | 3.0 | 14.0 | 0.00 | 0.00 | 0.00 | 37 | 1015.9 |
| 20260507174302 | 64 | 340 | 7.0 | 12.0 | 0.00 | 0.00 | 0.00 | 36 | 1015.6 |
| 20260507173802 | 63 | 190 | 8.0 | 14.0 | 0.00 | 0.00 | 0.00 | 37 | 1015.6 |
| 20260507173301 | 63 | 161 | 8.0 | 21.0 | 0.00 | 0.00 | 0.00 | 37 | 1015.6 |
| 20260507172802 | 62 | 123 | 8.0 | 13.0 | 0.00 | 0.00 | 0.00 | 37 | 1016.2 |
| 20260507172306 | 63 | 145 | 6.0 | 33.0 | 0.00 | 0.00 | 0.00 | 37 | 1016.2 |
| 20260507171801 | 62 | 303 | 5.0 | 12.0 | 0.00 | 0.00 | 0.00 | 39 | 1016.2 |
| 20260507171302 | 62 | 145 | 6.0 | 9.0 | 0.00 | 0.00 | 0.00 | 39 | 1016.2 |
| 20260507170802 | 62 | 303 | 5.0 | 9.0 | 0.00 | 0.00 | 0.00 | 40 | 1016.5 |
| 20260507165801 | 61 | 167 | 5.0 | 9.0 | 0.00 | 0.00 | 0.00 | 40 | 1016.5 |
| 20260507165301 | 62 | 207 | 5.0 | 21.0 | 0.00 | 0.00 | 0.00 | 39 | 1016.5 |
| 20260507164802 | 62 | 123 | 5.0 | 21.0 | 0.00 | 0.00 | 0.00 | 40 | 1016.8 |
| 20260507163802 | 61 | 145 | 6.0 | 12.0 | 0.00 | 0.00 | 0.00 | 40 | 1016.8 |
| 20260507162801 | 61 | 303 | 3.0 | 8.0 | 0.00 | 0.00 | 0.00 | 41 | 1016.8 |
| 20260507162306 | 61 | 231 | 3.0 | 5.0 | 0.00 | 0.00 | 0.00 | 42 | 1016.8 |
| 20260507161801 | 60 | 257 | 5.0 | 8.0 | 0.00 | 0.00 | 0.00 | 40 | 1016.8 |
| 20260507161302 | 60 | 306 | 5.0 | 7.0 | 0.00 | 0.00 | 0.00 | 41 | 1016.8 |
| 20260507160302 | 60 | 145 | 5.0 | 10.0 | 0.00 | 0.00 | 0.00 | 42 | 1017.4 |
| 20260507155802 | 59 | 145 | 5.0 | 10.0 | 0.00 | 0.00 | 0.00 | 43 | 1017.4 |
| 20260507155305 | 59 | 284 | 5.0 | 13.0 | 0.00 | 0.00 | 0.00 | 43 | 1017.4 |
| 20260507154802 | 59 | 145 | 5.0 | 13.0 | 0.00 | 0.00 | 0.00 | 45 | 1017.3 |
| 20260507154302 | 59 | 167 | 5.0 | 12.0 | 0.00 | 0.00 | 0.00 | 46 | 1017.3 |
| 20260507153802 | 58 | 145 | 5.0 | 10.0 | 0.00 | 0.00 | 0.00 | 49 | 1017.3 |
| 20260507153303 | 58 | 128 | 3.0 | 9.0 | 0.00 | 0.00 | 0.00 | 51 | 1017.3 |
| 20260507152802 | 58 | 145 | 5.0 | 6.0 | 0.00 | 0.00 | 0.00 | 51 | 1017.7 |
| 20260507152305 | 58 | 145 | 5.0 | 12.0 | 0.00 | 0.00 | 0.00 | 51 | 1017.7 |
| 20260507151802 | 58 | 145 | 3.0 | 9.0 | 0.00 | 0.00 | 0.00 | 49 | 1017.7 |
| 20260507150802 | 57 | 167 | 3.0 | 8.0 | 0.00 | 0.00 | 0.00 | 53 | 1018.0 |
| 20260507150302 | 57 | 209 | 3.0 | 15.0 | 0.00 | 0.00 | 0.00 | 54 | 1018.0 |
| 20260507145802 | 57 | 145 | 3.0 | 15.0 | 0.00 | 0.00 | 0.00 | 54 | 1018.0 |
| 20260507145306 | 56 | 151 | 5.0 | 8.0 | 0.00 | 0.00 | 0.00 | 54 | 1018.0 |
| 20260507144802 | 56 | 325 | 4.0 | 8.0 | 0.00 | 0.00 | 0.00 | 55 | 1018.0 |
| 20260507144302 | 56 | 161 | 3.0 | 8.0 | 0.00 | 0.00 | 0.00 | 56 | 1018.0 |
| 20260507143802 | 56 | 145 | 3.0 | 8.0 | 0.00 | 0.00 | 0.00 | 55 | 1018.0 |
| 20260507143302 | 56 | 167 | 3.0 | 7.0 | 0.00 | 0.00 | 0.00 | 56 | 1018.0 |
| 20260507142802 | 55 | 190 | 3.0 | 5.0 | 0.00 | 0.00 | 0.00 | 56 | 1017.7 |
| 20260507142306 | 55 | 282 | 2.0 | 5.0 | 0.00 | 0.00 | 0.00 | 58 | 1017.7 |
| 20260507141302 | 55 | 145 | 2.0 | 5.0 | 0.00 | 0.00 | 0.00 | 61 | 1017.7 |
| 20260507140802 | 54 | 190 | 1.0 | 5.0 | 0.00 | 0.00 | 0.00 | 60 | 1017.6 |
| 20260507140302 | 54 | 161 | 1.0 | 5.0 | 0.00 | 0.00 | 0.00 | 62 | 1017.6 |
| 20260507135802 | 54 | 213 | 1.0 | 5.0 | 0.00 | 0.00 | 0.00 | 64 | 1017.6 |
| 20260507135306 | 53 | 166 | 1.0 | 5.0 | 0.00 | 0.00 | 0.00 | 64 | 1017.6 |
| 20260507134302 | 52 | 257 | 1.0 | 5.0 | 0.00 | 0.00 | 0.00 | 65 | 1017.9 |
| 20260507133803 | 52 | 167 | 1.0 | 0.0 | 0.00 | 0.00 | 0.00 | 67 | 1017.9 |
| 20260507133303 | 52 | 184 | 1.0 | 0.0 | 0.00 | 0.00 | 0.00 | 68 | 1017.9 |
| 20260507132802 | 51 | 145 | 0.0 | 2.0 | 0.00 | 0.00 | 0.00 | 71 | 1018.1 |
| 20260507132306 | 51 | 156 | 1.0 | 5.0 | 0.00 | 0.00 | 0.00 | 72 | 1018.1 |
| 20260507131302 | 50 | 201 | 1.0 | 3.0 | 0.00 | 0.00 | 0.00 | 78 | 1018.1 |
| 20260507130302 | 48 | 145 | 0.0 | 3.0 | 0.00 | 0.00 | 0.00 | 81 | 1018.1 |
| 20260507125804 | 47 | 303 | 0.0 | 0.0 | 0.00 | 0.00 | 0.00 | 82 | 1018.1 |
| 20260507125306 | 47 | 167 | 0.0 | 0.0 | 0.00 | 0.00 | 0.00 | 82 | 1018.1 |
| 20260507124802 | 47 | 190 | 1.0 | 0.0 | 0.00 | 0.00 | 0.00 | 82 | 1017.9 |
| 20260507124302 | 46 | 181 | 1.0 | 5.0 | 0.00 | 0.00 | 0.00 | 82 | 1017.9 |
| 20260507123803 | 46 | 190 | 1.0 | 5.0 | 0.00 | 0.00 | 0.00 | 83 | 1017.9 |
| 20260507123303 | 45 | 190 | 0.0 | 0.0 | 0.00 | 0.00 | 0.00 | 83 | 1017.9 |
| 20260507122803 | 45 | 167 | 0.0 | 0.0 | 0.00 | 0.00 | 0.00 | 84 | 1017.7 |
| 20260507122306 | 44 | 145 | 0.0 | 0.0 | 0.00 | 0.00 | 0.00 | 84 | 1017.7 |
| 20260507121802 | 44 | 145 | 0.0 | 0.0 | 0.00 | 0.00 | 0.00 | 85 | 1017.7 |
| 20260507120802 | 44 | 145 | 0.0 | 0.0 | 0.00 | 0.00 | 0.00 | 86 | 1017.8 |
| 20260507120302 | 44 | 167 | 0.0 | 0.0 | 0.00 | 0.00 | 0.00 | 86 | 1017.8 |
| 20260507115802 | 43 | 167 | 0.0 | 0.0 | 0.00 | 0.00 | 0.00 | 86 | 1017.8 |
| 20260507115306 | 43 | 167 | 0.0 | 0.0 | 0.00 | 0.00 | 0.00 | 86 | 1017.8 |
| 20260507113802 | 42 | 190 | 0.0 | 0.0 | 0.00 | 0.00 | 0.00 | 85 | 1017.3 |
| 20260507113302 | 42 | 347 | 0.0 | 0.0 | 0.00 | 0.00 | 0.00 | 86 | 1017.3 |
| 20260507112803 | 42 | 347 | 0.0 | 0.0 | 0.00 | 0.00 | 0.00 | 85 | 1017.3 |
| 20260507112306 | 42 | 167 | 0.0 | 0.0 | 0.00 | 0.00 | 0.00 | 85 | 1017.3 |
| 20260507111302 | 42 | 167 | 0.0 | 0.0 | 0.00 | 0.00 | 0.00 | 85 | 1017.3 |
| 20260507110803 | 42 | 303 | 0.0 | 0.0 | 0.00 | 0.00 | 0.00 | 85 | 1017.1 |
| 20260507110302 | 42 | 303 | 0.0 | 0.0 | 0.00 | 0.00 | 0.00 | 84 | 1017.1 |
| 20260507105803 | 42 | 303 | 0.0 | 0.0 | 0.00 | 0.00 | 0.00 | 84 | 1017.1 |
| 20260507105306 | 42 | 316 | 0.0 | 0.0 | 0.00 | 0.00 | 0.00 | 84 | 1017.1 |
| 20260507104802 | 42 | 167 | 0.0 | 0.0 | 0.00 | 0.00 | 0.00 | 83 | 1016.8 |
| 20260507103802 | 43 | 167 | 0.0 | 0.0 | 0.00 | 0.00 | 0.00 | 82 | 1016.8 |
| 20260507103302 | 43 | 167 | 0.0 | 0.0 | 0.00 | 0.00 | 0.00 | 82 | 1016.8 |
| 20260507102802 | 43 | 167 | 0.0 | 0.0 | 0.00 | 0.00 | 0.00 | 81 | 1017.1 |
| 20260507101802 | 43 | 145 | 0.0 | 0.0 | 0.00 | 0.00 | 0.00 | 81 | 1017.1 |
| 20260507101302 | 43 | 145 | 0.0 | 0.0 | 0.00 | 0.00 | 0.00 | 81 | 1017.1 |
| 20260507100802 | 43 | 145 | 0.0 | 0.0 | 0.00 | 0.00 | 0.00 | 81 | 1017.1 |
| 20260507100303 | 44 | 145 | 0.0 | 0.0 | 0.00 | 0.00 | 0.00 | 81 | 1017.1 |
| 20260507095802 | 44 | 145 | 0.0 | 0.0 | 0.00 | 0.00 | 0.00 | 81 | 1017.1 |
| 20260507095305 | 44 | 145 | 0.0 | 0.0 | 0.00 | 0.00 | 0.00 | 81 | 1017.1 |
| 20260507094802 | 44 | 145 | 0.0 | 0.0 | 0.00 | 0.00 | 0.00 | 82 | 1017.1 |
| 20260507094303 | 44 | 145 | 0.0 | 0.0 | 0.00 | 0.00 | 0.00 | 81 | 1017.1 |
| 20260507093803 | 44 | 145 | 0.0 | 0.0 | 0.00 | 0.00 | 0.00 | 82 | 1017.1 |
| 20260507093303 | 44 | 145 | 0.0 | 0.0 | 0.00 | 0.00 | 0.00 | 82 | 1017.1 |
| 20260507092802 | 44 | 145 | 0.0 | 0.0 | 0.00 | 0.00 | 0.00 | 82 | 1017.1 |
| 20260507092306 | 44 | 145 | 0.0 | 0.0 | 0.00 | 0.00 | 0.00 | 82 | 1017.1 |
| 20260507091803 | 44 | 145 | 0.0 | 0.0 | 0.00 | 0.00 | 0.00 | 82 | 1017.1 |
| 20260507091302 | 43 | 145 | 0.0 | 0.0 | 0.00 | 0.00 | 0.00 | 82 | 1017.1 |
| 20260507090802 | 43 | 145 | 0.0 | 0.0 | 0.00 | 0.00 | 0.00 | 81 | 1017.4 |
| 20260507090302 | 43 | 145 | 0.0 | 0.0 | 0.00 | 0.00 | 0.00 | 81 | 1017.4 |
| 20260507085803 | 43 | 145 | 0.0 | 0.0 | 0.00 | 0.00 | 0.00 | 80 | 1017.4 |
| 20260507085306 | 43 | 145 | 0.0 | 0.0 | 0.00 | 0.00 | 0.00 | 80 | 1017.4 |
| 20260507084303 | 43 | 145 | 0.0 | 0.0 | 0.00 | 0.00 | 0.00 | 79 | 1017.2 |
| 20260507083303 | 44 | 303 | 0.0 | 0.0 | 0.00 | 0.00 | 0.00 | 78 | 1017.2 |
| 20260507082802 | 44 | 303 | 0.0 | 0.0 | 0.00 | 0.00 | 0.00 | 78 | 1017.6 |
| 20260507082306 | 44 | 303 | 0.0 | 0.0 | 0.00 | 0.00 | 0.00 | 78 | 1017.6 |
| 20260507081802 | 44 | 303 | 0.0 | 0.0 | 0.00 | 0.00 | 0.00 | 77 | 1017.6 |
| 20260507081302 | 44 | 303 | 0.0 | 0.0 | 0.00 | 0.00 | 0.00 | 77 | 1017.6 |
| 20260507080802 | 44 | 303 | 0.0 | 0.0 | 0.00 | 0.00 | 0.00 | 76 | 1017.3 |
| 20260507080303 | 44 | 303 | 0.0 | 0.0 | 0.00 | 0.00 | 0.00 | 76 | 1017.3 |
| 20260507075802 | 44 | 303 | 0.0 | 0.0 | 0.00 | 0.00 | 0.00 | 75 | 1017.3 |
| 20260507075306 | 44 | 303 | 0.0 | 0.0 | 0.00 | 0.00 | 0.00 | 75 | 1017.3 |
| 20260507074302 | 44 | 303 | 0.0 | 0.0 | 0.00 | 0.00 | 0.00 | 74 | 1017.1 |
| 20260507073303 | 45 | 303 | 0.0 | 0.0 | 0.00 | 0.00 | 0.00 | 74 | 1017.1 |
| 20260507072802 | 45 | 303 | 0.0 | 0.0 | 0.00 | 0.00 | 0.00 | 73 | 1017.1 |
| 20260507072306 | 45 | 303 | 0.0 | 0.0 | 0.00 | 0.00 | 0.00 | 73 | 1017.1 |
| 20260507071802 | 45 | 303 | 0.0 | 0.0 | 0.00 | 0.00 | 0.00 | 73 | 1017.1 |
| 20260507071302 | 45 | 303 | 0.0 | 0.0 | 0.00 | 0.00 | 0.00 | 72 | 1017.1 |
| 20260507070803 | 45 | 303 | 0.0 | 0.0 | 0.00 | 0.00 | 0.00 | 72 | 1017.2 |
| 20260507070302 | 45 | 303 | 0.0 | 0.0 | 0.00 | 0.00 | 0.00 | 72 | 1017.2 |
| 20260507065803 | 45 | 303 | 0.0 | 0.0 | 0.00 | 0.00 | 0.00 | 71 | 1017.2 |
| 20260507065305 | 46 | 303 | 0.0 | 0.0 | 0.00 | 0.00 | 0.00 | 71 | 1017.2 |
| 20260507064802 | 46 | 303 | 0.0 | 0.0 | 0.00 | 0.00 | 0.00 | 71 | 1017.4 |
| 20260507064303 | 46 | 303 | 0.0 | 0.0 | 0.00 | 0.00 | 0.00 | 70 | 1017.4 |
| 20260507063803 | 46 | 303 | 0.0 | 0.0 | 0.00 | 0.00 | 0.00 | 69 | 1017.4 |
| 20260507063302 | 46 | 303 | 0.0 | 0.0 | 0.00 | 0.00 | 0.00 | 69 | 1017.4 |
| 20260507062306 | 46 | 303 | 0.0 | 0.0 | 0.00 | 0.00 | 0.00 | 69 | 1017.6 |
| 20260507061303 | 47 | 303 | 0.0 | 0.0 | 0.00 | 0.00 | 0.00 | 68 | 1017.6 |
| 20260507060803 | 47 | 303 | 0.0 | 0.0 | 0.00 | 0.00 | 0.00 | 68 | 1017.3 |
| 20260507060303 | 47 | 303 | 0.0 | 0.0 | 0.00 | 0.00 | 0.00 | 67 | 1017.3 |
| 20260507055803 | 47 | 303 | 0.0 | 0.0 | 0.00 | 0.00 | 0.00 | 66 | 1017.3 |
| 20260507055305 | 47 | 303 | 0.0 | 0.0 | 0.00 | 0.00 | 0.00 | 66 | 1017.3 |
| 20260507054802 | 47 | 303 | 0.0 | 0.0 | 0.00 | 0.00 | 0.00 | 65 | 1017.3 |
| 20260507054303 | 48 | 303 | 0.0 | 0.0 | 0.00 | 0.00 | 0.00 | 65 | 1017.3 |
| 20260507053802 | 48 | 303 | 0.0 | 0.0 | 0.00 | 0.00 | 0.00 | 64 | 1017.3 |
| 20260507052803 | 48 | 303 | 0.0 | 0.0 | 0.00 | 0.00 | 0.00 | 64 | 1017.3 |
| 20260507052305 | 48 | 303 | 0.0 | 0.0 | 0.00 | 0.00 | 0.00 | 63 | 1017.3 |
| 20260507051803 | 49 | 303 | 0.0 | 0.0 | 0.00 | 0.00 | 0.00 | 63 | 1017.3 |
| 20260507051302 | 49 | 303 | 0.0 | 0.0 | 0.00 | 0.00 | 0.00 | 62 | 1017.3 |
| 20260507050819 | 49 | 303 | 0.0 | 0.0 | 0.00 | 0.00 | 0.00 | 62 | 1017.1 |
| 20260507050303 | 49 | 303 | 0.0 | 0.0 | 0.00 | 0.00 | 0.00 | 62 | 1017.1 |
| 20260507045802 | 49 | 303 | 0.0 | 0.0 | 0.00 | 0.00 | 0.19 | 61 | 1017.1 |
| 20260507045306 | 49 | 303 | 0.0 | 0.0 | 0.00 | 0.00 | 0.19 | 61 | 1017.1 |
| 20260507044803 | 50 | 303 | 0.0 | 0.0 | 0.00 | 0.00 | 0.19 | 60 | 1017.0 |
| 20260507043803 | 50 | 303 | 0.0 | 0.0 | 0.00 | 0.00 | 0.19 | 59 | 1017.0 |
| 20260507043303 | 50 | 303 | 0.0 | 0.0 | 0.00 | 0.00 | 0.19 | 58 | 1017.0 |
| 20260507042803 | 50 | 303 | 0.0 | 0.0 | 0.00 | 0.00 | 0.19 | 58 | 1016.9 |
| 20260507042306 | 51 | 303 | 0.0 | 0.0 | 0.00 | 0.00 | 0.19 | 57 | 1016.9 |
| 20260507041302 | 51 | 303 | 0.0 | 0.0 | 0.00 | 0.00 | 0.19 | 56 | 1016.9 |
| 20260507040802 | 51 | 303 | 0.0 | 0.0 | 0.00 | 0.00 | 0.19 | 55 | 1016.8 |
| 20260507040303 | 51 | 303 | 0.0 | 0.0 | 0.00 | 0.00 | 0.19 | 55 | 1016.8 |
| 20260507035306 | 52 | 303 | 0.0 | 0.0 | 0.00 | 0.00 | 0.19 | 54 | 1016.8 |
| 20260507034802 | 52 | 347 | 0.0 | 0.0 | 0.00 | 0.00 | 0.19 | 53 | 1017.0 |
| 20260507034303 | 52 | 347 | 0.0 | 0.0 | 0.00 | 0.00 | 0.19 | 53 | 1017.0 |
| 20260507033802 | 52 | 303 | 0.0 | 0.0 | 0.00 | 0.00 | 0.19 | 52 | 1017.0 |
| 20260507033303 | 53 | 303 | 0.0 | 0.0 | 0.00 | 0.00 | 0.19 | 52 | 1017.0 |
| 20260507032803 | 53 | 303 | 0.0 | 0.0 | 0.00 | 0.00 | 0.19 | 51 | 1016.8 |
| 20260507031803 | 53 | 303 | 0.0 | 0.0 | 0.00 | 0.00 | 0.19 | 49 | 1016.8 |
| 20260507031303 | 54 | 303 | 0.0 | 0.0 | 0.00 | 0.00 | 0.19 | 49 | 1016.8 |
| 20260507030303 | 54 | 308 | 0.0 | 0.0 | 0.00 | 0.00 | 0.19 | 49 | 1017.0 |
| 20260507025802 | 55 | 347 | 0.0 | 2.0 | 0.00 | 0.00 | 0.19 | 49 | 1017.0 |
| 20260507025306 | 55 | 14 | 0.0 | 2.0 | 0.00 | 0.00 | 0.19 | 49 | 1017.0 |
| 20260507024804 | 55 | 303 | 1.0 | 0.0 | 0.00 | 0.00 | 0.19 | 48 | 1017.0 |
| 20260507023803 | 55 | 10 | 0.0 | 3.0 | 0.00 | 0.00 | 0.19 | 48 | 1017.0 |
| 20260507023303 | 55 | 230 | 0.0 | 2.0 | 0.00 | 0.00 | 0.19 | 48 | 1017.0 |
| 20260507022802 | 55 | 77 | 0.0 | 0.0 | 0.00 | 0.00 | 0.19 | 48 | 1016.5 |
| 20260507022306 | 55 | 85 | 0.0 | 2.0 | 0.00 | 0.00 | 0.19 | 48 | 1016.5 |
| 20260507021802 | 56 | 347 | 0.0 | 2.0 | 0.00 | 0.00 | 0.19 | 48 | 1016.5 |
| 20260507021303 | 56 | 334 | 0.0 | 3.0 | 0.00 | 0.00 | 0.19 | 48 | 1016.5 |
| 20260507020803 | 56 | 257 | 0.0 | 0.0 | 0.00 | 0.00 | 0.19 | 47 | 1016.1 |
| 20260507015802 | 56 | 325 | 0.0 | 0.0 | 0.00 | 0.00 | 0.19 | 47 | 1016.1 |
| 20260507014803 | 56 | 325 | 0.0 | 0.0 | 0.00 | 0.03 | 0.19 | 46 | 1015.8 |
| 20260507014303 | 57 | 347 | 0.0 | 0.0 | 0.00 | 0.07 | 0.19 | 45 | 1015.8 |
| 20260507013802 | 57 | 347 | 0.0 | 0.0 | 0.00 | 0.07 | 0.19 | 45 | 1015.8 |
| 20260507013303 | 57 | 3 | 0.0 | 0.0 | 0.00 | 0.07 | 0.19 | 45 | 1015.8 |
| 20260507012306 | 58 | 303 | 0.0 | 0.0 | 0.00 | 0.07 | 0.19 | 43 | 1015.3 |
| 20260507011802 | 58 | 347 | 1.0 | 0.0 | 0.00 | 0.07 | 0.19 | 43 | 1015.3 |
| 20260507011303 | 58 | 8 | 1.0 | 5.0 | 0.00 | 0.07 | 0.19 | 42 | 1015.3 |
| 20260507010803 | 58 | 325 | 1.0 | 5.0 | 0.00 | 0.07 | 0.19 | 42 | 1014.9 |
| 20260507010303 | 59 | 0 | 1.0 | 8.0 | 0.00 | 0.07 | 0.19 | 41 | 1014.9 |
| 20260507005305 | 60 | 330 | 1.0 | 3.0 | 0.00 | 0.07 | 0.19 | 40 | 1014.9 |
| 20260507004803 | 60 | 190 | 1.0 | 5.0 | 0.00 | 0.07 | 0.19 | 39 | 1014.9 |
| 20260507003803 | 61 | 347 | 1.0 | 3.0 | 0.00 | 0.07 | 0.19 | 40 | 1014.9 |
| 20260507003303 | 61 | 336 | 1.0 | 3.0 | 0.00 | 0.07 | 0.19 | 40 | 1014.9 |
| 20260507002803 | 60 | 190 | 1.0 | 5.0 | 0.00 | 0.07 | 0.19 | 40 | 1015.5 |
| 20260507002306 | 60 | 148 | 1.0 | 3.0 | 0.00 | 0.07 | 0.19 | 39 | 1015.5 |
| 20260507000803 | 61 | 190 | 2.0 | 12.0 | 0.00 | 0.07 | 0.19 | 39 | 1014.9 |
| 20260507000306 | 61 | 347 | 2.0 | 12.0 | 0.00 | 0.07 | 0.19 | 39 | 1014.9 |
| 20260506235803 | 61 | 303 | 2.0 | 3.0 | 0.00 | 0.07 | 0.19 | 38 | 1014.9 |
| 20260506235306 | 61 | 319 | 3.0 | 6.0 | 0.00 | 0.07 | 0.19 | 38 | 1014.9 |
| 20260506234803 | 62 | 33 | 5.0 | 9.0 | 0.00 | 0.07 | 0.19 | 38 | 1015.1 |
| 20260506234303 | 61 | 212 | 5.0 | 12.0 | 0.00 | 0.07 | 0.19 | 37 | 1015.1 |
| 20260506233303 | 62 | 322 | 3.0 | 7.0 | 0.00 | 0.07 | 0.19 | 36 | 1015.1 |
| 20260506232803 | 63 | 100 | 3.0 | 14.0 | 0.00 | 0.07 | 0.19 | 36 | 1014.4 |
| 20260506232306 | 63 | 176 | 5.0 | 7.0 | 0.00 | 0.07 | 0.19 | 36 | 1014.4 |
| 20260506231803 | 64 | 303 | 4.0 | 13.0 | 0.00 | 0.07 | 0.19 | 35 | 1014.4 |
| 20260506231303 | 67 | 269 | 2.0 | 14.0 | 0.00 | 0.07 | 0.19 | 34 | 1014.4 |
| 20260506230802 | 68 | 55 | 2.0 | 14.0 | 0.00 | 0.07 | 0.19 | 32 | 1014.1 |
| 20260506230303 | 69 | 279 | 3.0 | 7.0 | 0.00 | 0.07 | 0.19 | 36 | 1014.1 |
| 20260506225803 | 68 | 347 | 5.0 | 7.0 | 0.00 | 0.07 | 0.19 | 34 | 1014.1 |
| 20260506225305 | 67 | 296 | 5.0 | 18.0 | 0.00 | 0.07 | 0.19 | 34 | 1014.1 |
| 20260506224804 | 66 | 280 | 4.0 | 9.0 | 0.00 | 0.07 | 0.19 | 34 | 1014.5 |
| 20260506224303 | 66 | 347 | 4.0 | 9.0 | 0.00 | 0.07 | 0.19 | 33 | 1014.5 |
| 20260506223303 | 67 | 242 | 5.0 | 13.0 | 0.00 | 0.07 | 0.19 | 33 | 1014.5 |
| 20260506222803 | 67 | 10 | 5.0 | 5.0 | 0.00 | 0.07 | 0.19 | 33 | 1014.3 |
| 20260506222306 | 68 | 316 | 4.0 | 10.0 | 0.00 | 0.07 | 0.19 | 34 | 1014.3 |
| 20260506221803 | 68 | 235 | 3.0 | 8.0 | 0.00 | 0.07 | 0.19 | 34 | 1014.3 |
| 20260506221303 | 68 | 339 | 4.0 | 7.0 | 0.00 | 0.07 | 0.19 | 33 | 1014.3 |
| 20260506220303 | 67 | 347 | 6.0 | 16.0 | 0.00 | 0.07 | 0.19 | 34 | 1014.6 |
| 20260506215803 | 69 | 303 | 5.0 | 8.0 | 0.00 | 0.07 | 0.19 | 35 | 1014.6 |
| 20260506214803 | 69 | 303 | 5.0 | 10.0 | 0.00 | 0.07 | 0.19 | 33 | 1014.5 |
| 20260506214303 | 68 | 328 | 5.0 | 10.0 | 0.00 | 0.07 | 0.19 | 36 | 1014.5 |
| 20260506213303 | 68 | 264 | 5.0 | 8.0 | 0.00 | 0.07 | 0.19 | 36 | 1014.5 |
| 20260506212803 | 68 | 213 | 5.0 | 12.0 | 0.00 | 0.07 | 0.19 | 36 | 1014.8 |
| 20260506212306 | 67 | 323 | 5.0 | 12.0 | 0.00 | 0.07 | 0.19 | 35 | 1014.8 |
| 20260506211802 | 66 | 347 | 5.0 | 10.0 | 0.00 | 0.07 | 0.19 | 36 | 1014.8 |
| 20260506211303 | 68 | 299 | 5.0 | 6.0 | 0.00 | 0.07 | 0.19 | 37 | 1014.8 |
| 20260506210803 | 68 | 10 | 4.0 | 8.0 | 0.00 | 0.07 | 0.19 | 36 | 1015.0 |
| 20260506210303 | 69 | 286 | 2.0 | 7.0 | 0.00 | 0.07 | 0.19 | 37 | 1015.0 |
| 20260506205803 | 68 | 77 | 2.0 | 5.0 | 0.00 | 0.07 | 0.19 | 38 | 1015.0 |
| 20260506205306 | 66 | 296 | 3.0 | 3.0 | 0.00 | 0.07 | 0.19 | 37 | 1015.0 |
| 20260506204803 | 65 | 100 | 5.0 | 10.0 | 0.00 | 0.07 | 0.19 | 37 | 1015.3 |
| 20260506204303 | 65 | 202 | 5.0 | 10.0 | 0.00 | 0.07 | 0.19 | 36 | 1015.3 |
| 20260506203804 | 68 | 33 | 5.0 | 9.0 | 0.00 | 0.07 | 0.19 | 36 | 1015.3 |
| 20260506203303 | 67 | 347 | 5.0 | 9.0 | 0.00 | 0.07 | 0.19 | 36 | 1015.3 |
| 20260506202803 | 67 | 100 | 5.0 | 9.0 | 0.00 | 0.07 | 0.19 | 35 | 1015.5 |
| 20260506202306 | 67 | 0 | 5.0 | 17.0 | 0.00 | 0.07 | 0.19 | 36 | 1015.5 |
| 20260506201803 | 68 | 145 | 3.0 | 7.0 | 0.00 | 0.07 | 0.19 | 37 | 1015.5 |
| 20260506201303 | 67 | 328 | 3.0 | 12.0 | 0.00 | 0.07 | 0.19 | 37 | 1015.5 |
| 20260506200804 | 65 | 347 | 5.0 | 6.0 | 0.00 | 0.07 | 0.19 | 37 | 1015.5 |
| 20260506200303 | 65 | 290 | 3.0 | 7.0 | 0.00 | 0.07 | 0.19 | 38 | 1015.5 |
| 20260506195803 | 64 | 303 | 3.0 | 8.0 | 0.00 | 0.07 | 0.19 | 37 | 1015.5 |
| 20260506195305 | 65 | 334 | 6.0 | 9.0 | 0.00 | 0.07 | 0.19 | 37 | 1015.5 |
| 20260506194804 | 64 | 10 | 6.0 | 16.0 | 0.00 | 0.07 | 0.19 | 34 | 1015.7 |
| 20260506194304 | 66 | 334 | 5.0 | 16.0 | 0.00 | 0.07 | 0.19 | 36 | 1015.7 |
| 20260506193803 | 66 | 190 | 5.0 | 12.0 | 0.00 | 0.07 | 0.19 | 36 | 1015.7 |
| 20260506193304 | 66 | 272 | 5.0 | 7.0 | 0.00 | 0.07 | 0.19 | 36 | 1015.7 |
| 20260506192305 | 65 | 321 | 6.0 | 10.0 | 0.00 | 0.07 | 0.19 | 37 | 1015.7 |
| 20260506191803 | 65 | 325 | 6.0 | 10.0 | 0.00 | 0.07 | 0.19 | 37 | 1015.7 |
| 20260506191303 | 65 | 85 | 5.0 | 6.0 | 0.00 | 0.07 | 0.19 | 39 | 1015.7 |
| 20260506190804 | 66 | 190 | 3.0 | 5.0 | 0.00 | 0.07 | 0.19 | 39 | 1015.7 |
| 20260506190303 | 65 | 294 | 2.0 | 7.0 | 0.00 | 0.07 | 0.19 | 42 | 1015.7 |
| 20260506185803 | 62 | 33 | 3.0 | 7.0 | 0.00 | 0.07 | 0.19 | 42 | 1015.7 |
| 20260506185306 | 64 | 333 | 4.0 | 5.0 | 0.00 | 0.07 | 0.19 | 42 | 1015.7 |
| 20260506184803 | 64 | 347 | 3.0 | 12.0 | 0.00 | 0.07 | 0.19 | 41 | 1015.7 |
| 20260506184303 | 65 | 153 | 5.0 | 7.0 | 0.00 | 0.07 | 0.19 | 42 | 1015.7 |